When you browse on this site, cookies collect data to enhance your experience and personalize the content and advertising you see.
Visit our Privacy Policy to learn more. By continuing to use the site, you agree to this use of cookies and data.

Hourly Weather Batagay-Alyta

Today, 3 July, Friday

Time Temperature Precipitation Wind Pressure Humidity
00:00 +12°C° 0.2 mm 1 mps 703 mmHg 84%
01:00 +13°C° 0 mm 1 mps 703 mmHg 82%
02:00 +13°C° 0 mm 1 mps 703 mmHg 80%
03:00 +13°C° 0 mm 1 mps 703 mmHg 78%
04:00 +12°C° 0 mm 3 mps 703 mmHg 74%
05:00 +12°C° 0 mm 4 mps 703 mmHg 69%
06:00 +12°C° 0 mm 5 mps 703 mmHg 64%
07:00 +12°C° 0 mm 7 mps 703 mmHg 60%
08:00 +13°C° 0 mm 8 mps 703 mmHg 55%
09:00 +13°C° 0 mm 9 mps 704 mmHg 51%
10:00 +15°C° 0 mm 9 mps 704 mmHg 47%
11:00 +16°C° 0 mm 9 mps 704 mmHg 44%
12:00 +17°C° 0 mm 10 mps 704 mmHg 40%
13:00 +17°C° 0 mm 10 mps 704 mmHg 40%
14:00 +17°C° 0 mm 10 mps 704 mmHg 41%
15:00 +17°C° 0 mm 10 mps 704 mmHg 41%
16:00 +16°C° 0 mm 11 mps 704 mmHg 43%
17:00 +14°C° 0 mm 11 mps 704 mmHg 45%
18:00 +13°C° 0 mm 11 mps 705 mmHg 48%
19:00 +12°C° 0 mm 11 mps 705 mmHg 51%
20:00 +9°C° 0 mm 10 mps 705 mmHg 55%
21:00 +8°C° 0 mm 10 mps 705 mmHg 59%
22:00 +7°C° 0 mm 9 mps 706 mmHg 63%
23:00 +6°C° 0 mm 9 mps 706 mmHg 67%

Tomorrow, 4 July, Saturday

Time Temperature Precipitation Wind Pressure Humidity
00:00 +5°C° 0 mm 9 mps 706 mmHg 71%
01:00 +5°C° 0.3 mm 8 mps 706 mmHg 77%
02:00 +4°C° 0.3 mm 7 mps 706 mmHg 83%
03:00 +3°C° 0.3 mm 6 mps 706 mmHg 89%
04:00 +3°C° 0.5 mm 6 mps 706 mmHg 89%
05:00 +3°C° 0.5 mm 6 mps 706 mmHg 89%
06:00 +4°C° 0.5 mm 6 mps 706 mmHg 89%
07:00 +4°C° 0.1 mm 6 mps 706 mmHg 89%
08:00 +4°C° 0.1 mm 6 mps 706 mmHg 88%
09:00 +4°C° 0.1 mm 6 mps 706 mmHg 87%
10:00 +4°C° 0.1 mm 7 mps 706 mmHg 87%
11:00 +4°C° 0.1 mm 7 mps 706 mmHg 86%
12:00 +4°C° 0.1 mm 7 mps 707 mmHg 86%
13:00 +4°C° 0 mm 7 mps 707 mmHg 85%
14:00 +4°C° 0 mm 7 mps 707 mmHg 84%
15:00 +4°C° 0 mm 7 mps 707 mmHg 84%
16:00 +4°C° 0 mm 7 mps 707 mmHg 80%
17:00 +4°C° 0 mm 8 mps 707 mmHg 77%
18:00 +3°C° 0 mm 9 mps 707 mmHg 74%
19:00 +4°C° 0 mm 8 mps 707 mmHg 76%
20:00 +2°C° 0 mm 8 mps 708 mmHg 78%
21:00 +3°C° 0 mm 7 mps 708 mmHg 80%
22:00 +2°C° 0 mm 6 mps 708 mmHg 82%
23:00 +2°C° 0 mm 6 mps 708 mmHg 84%

Day after tomorrow, 5 July, Sunday

Time Temperature Precipitation Wind Pressure Humidity
00:00 +2°C° 0 mm 6 mps 708 mmHg 86%
01:00 +2°C° 0 mm 6 mps 708 mmHg 86%
02:00 +1°C° 0 mm 5 mps 708 mmHg 87%
03:00 +1°C° 0 mm 5 mps 708 mmHg 88%
04:00 +1°C° 0.1 mm 5 mps 707 mmHg 89%
05:00 +1°C° 0.1 mm 5 mps 707 mmHg 91%
06:00 +1°C° 0.1 mm 5 mps 707 mmHg 92%
07:00 +2°C° 0 mm 5 mps 707 mmHg 87%
08:00 +3°C° 0 mm 6 mps 707 mmHg 82%
09:00 +3°C° 0 mm 6 mps 707 mmHg 78%
10:00 +3°C° 0 mm 5 mps 707 mmHg 82%
11:00 +3°C° 0 mm 5 mps 707 mmHg 86%
12:00 +3°C° 0 mm 4 mps 707 mmHg 90%
13:00 +3°C° 0.1 mm 3 mps 706 mmHg 90%
14:00 +4°C° 0.1 mm 2 mps 706 mmHg 90%
15:00 +5°C° 0.1 mm 1 mps 706 mmHg 90%
16:00 +4°C° 0.1 mm 2 mps 706 mmHg 89%
17:00 +4°C° 0.1 mm 2 mps 706 mmHg 87%
18:00 +3°C° 0.1 mm 3 mps 706 mmHg 85%
19:00 +4°C° 0 mm 2 mps 706 mmHg 84%
20:00 +4°C° 0 mm 2 mps 706 mmHg 83%
21:00 +4°C° 0 mm 2 mps 706 mmHg 82%
22:00 +3°C° 0.1 mm 2 mps 706 mmHg 85%
23:00 +4°C° 0.1 mm 1 mps 706 mmHg 88%

6 July, Monday

Time Temperature Precipitation Wind Pressure Humidity
00:00 +3°C° 0.1 mm 1 mps 706 mmHg 91%
01:00 +3°C° 0.1 mm 1 mps 706 mmHg 92%
02:00 +3°C° 0.1 mm 1 mps 706 mmHg 93%
03:00 +3°C° 0.1 mm 1 mps 706 mmHg 93%
04:00 +3°C° 0.1 mm 1 mps 706 mmHg 92%
05:00 +4°C° 0.1 mm 1 mps 706 mmHg 91%
06:00 +4°C° 0.1 mm 1 mps 706 mmHg 89%
07:00 +5°C° 0 mm 1 mps 706 mmHg 84%
08:00 +5°C° 0 mm 1 mps 706 mmHg 80%
09:00 +6°C° 0 mm 1 mps 706 mmHg 75%
10:00 +7°C° 0 mm 1 mps 706 mmHg 71%
11:00 +8°C° 0 mm 1 mps 706 mmHg 67%
12:00 +7°C° 0 mm 2 mps 706 mmHg 63%
13:00 +8°C° 0 mm 2 mps 706 mmHg 61%
14:00 +8°C° 0 mm 2 mps 706 mmHg 60%
15:00 +9°C° 0 mm 2 mps 706 mmHg 58%
16:00 +9°C° 0 mm 2 mps 706 mmHg 56%
17:00 +10°C° 0 mm 2 mps 706 mmHg 54%
18:00 +10°C° 0 mm 2 mps 706 mmHg 53%
19:00 +10°C° 0 mm 2 mps 706 mmHg 55%
20:00 +10°C° 0 mm 2 mps 706 mmHg 57%
21:00 +9°C° 0 mm 2 mps 706 mmHg 59%
22:00 +8°C° 0 mm 2 mps 706 mmHg 65%
23:00 +6°C° 0 mm 2 mps 706 mmHg 71%

7 July, Tuesday

Time Temperature Precipitation Wind Pressure Humidity
00:00 +4°C° 0 mm 2 mps 706 mmHg 78%
01:00 +5°C° 0 mm 2 mps 706 mmHg 75%
02:00 +5°C° 0 mm 2 mps 706 mmHg 73%
03:00 +6°C° 0 mm 2 mps 707 mmHg 71%
04:00 +6°C° 0 mm 2 mps 707 mmHg 69%
05:00 +7°C° 0 mm 2 mps 707 mmHg 67%
06:00 +8°C° 0 mm 2 mps 707 mmHg 66%
07:00 +8°C° 0.1 mm 2 mps 707 mmHg 66%
08:00 +9°C° 0.1 mm 2 mps 707 mmHg 66%
09:00 +9°C° 0.1 mm 2 mps 707 mmHg 66%
10:00 +10°C° 0.1 mm 2 mps 707 mmHg 66%
11:00 +10°C° 0.1 mm 2 mps 707 mmHg 66%
12:00 +10°C° 0.1 mm 2 mps 707 mmHg 65%
13:00 +12°C° 0 mm 2 mps 707 mmHg 66%
14:00 +12°C° 0 mm 2 mps 707 mmHg 67%
15:00 +12°C° 0 mm 1 mps 707 mmHg 68%
16:00 +13°C° 0 mm 1 mps 707 mmHg 64%
17:00 +13°C° 0 mm 1 mps 707 mmHg 61%
18:00 +14°C° 0 mm 1 mps 707 mmHg 58%
19:00 +14°C° 0 mm 1 mps 707 mmHg 61%
20:00 +13°C° 0 mm 1 mps 707 mmHg 64%
21:00 +13°C° 0 mm 1 mps 707 mmHg 67%
22:00 +11°C° 0 mm 1 mps 707 mmHg 72%
23:00 +9°C° 0 mm 1 mps 706 mmHg 77%

8 July, Wednesday

Time Temperature Precipitation Wind Pressure Humidity
00:00 +7°C° 0 mm 2 mps 706 mmHg 82%
01:00 +7°C° 0 mm 2 mps 706 mmHg 82%
02:00 +7°C° 0 mm 2 mps 706 mmHg 83%
03:00 +7°C° 0 mm 2 mps 706 mmHg 84%
04:00 +8°C° 0 mm 2 mps 705 mmHg 79%
05:00 +9°C° 0 mm 2 mps 705 mmHg 75%
06:00 +10°C° 0 mm 2 mps 705 mmHg 70%
07:00 +12°C° 0.3 mm 2 mps 705 mmHg 70%
08:00 +12°C° 0.3 mm 2 mps 705 mmHg 70%
09:00 +11°C° 0.3 mm 3 mps 704 mmHg 70%
10:00 +12°C° 0.8 mm 2 mps 704 mmHg 75%
11:00 +12°C° 0.8 mm 2 mps 703 mmHg 80%
12:00 +10°C° 0.8 mm 2 mps 703 mmHg 85%
13:00 +10°C° 1.2 mm 2 mps 703 mmHg 87%
14:00 +10°C° 1.2 mm 2 mps 702 mmHg 90%
15:00 +9°C° 1.2 mm 2 mps 702 mmHg 92%
16:00 +9°C° 1.2 mm 2 mps 702 mmHg 92%
17:00 +10°C° 1.2 mm 1 mps 702 mmHg 92%
18:00 +10°C° 1.2 mm 1 mps 701 mmHg 91%
19:00 +10°C° 0.5 mm 1 mps 701 mmHg 90%
20:00 +10°C° 0.5 mm 1 mps 701 mmHg 89%
21:00 +10°C° 0.5 mm 1 mps 701 mmHg 87%
22:00 +9°C° 0.1 mm 1 mps 701 mmHg 89%
23:00 +8°C° 0.1 mm 1 mps 701 mmHg 91%
Show more